• In Latvia
  • List of Countries
  • For 7 days
  • Water Temperature
  • Satellite Maps
  • Weather Map
  • Weather Widgets
  • user-avatar
    Login

    Hourly Weather Beskid

    Today, 14 August, Tuesday

    Time Temperature Precipitation Wind Pressure Humidity
    00:00 +9°C° 0 mm 1 mps 601 mmHg 78%
    01:00 +9°C° 0 mm 1 mps 600 mmHg 80%
    02:00 +9°C° 0 mm 1 mps 600 mmHg 80%
    03:00 +9°C° 0 mm 1 mps 600 mmHg 81%
    04:00 +9°C° 0 mm 1 mps 600 mmHg 81%
    05:00 +10°C° 0 mm 1 mps 601 mmHg 77%
    06:00 +11°C° 0 mm 1 mps 602 mmHg 73%
    07:00 +13°C° 0 mm 2 mps 603 mmHg 68%
    08:00 +14°C° 0.5 mm 2 mps 603 mmHg 65%
    09:00 +16°C° 0.5 mm 2 mps 604 mmHg 62%
    10:00 +17°C° 0.5 mm 3 mps 604 mmHg 60%
    11:00 +17°C° 0.7 mm 3 mps 604 mmHg 59%
    12:00 +17°C° 0.7 mm 3 mps 604 mmHg 59%
    13:00 +17°C° 0 mm 3 mps 604 mmHg 61%
    14:00 +16°C° 1.4 mm 2 mps 604 mmHg 65%
    15:00 +16°C° 1.4 mm 2 mps 604 mmHg 69%
    16:00 +15°C° 1.4 mm 2 mps 604 mmHg 73%
    17:00 +13°C° 1.4 mm 1 mps 603 mmHg 77%
    18:00 +12°C° 1.4 mm 1 mps 602 mmHg 82%
    19:00 +10°C° 1.4 mm 1 mps 602 mmHg 87%
    20:00 +9°C° 0.5 mm 1 mps 602 mmHg 89%
    21:00 +9°C° 0.5 mm 1 mps 601 mmHg 91%
    22:00 +8°C° 0.5 mm 1 mps 601 mmHg 93%
    23:00 +8°C° 0.1 mm 1 mps 601 mmHg 93%

    Tomorrow, 15 August, Wednesday

    Time Temperature Precipitation Wind Pressure Humidity
    00:00 +8°C° 0.1 mm 1 mps 601 mmHg 94%
    01:00 +7°C° 0.1 mm 1 mps 601 mmHg 94%
    02:00 +7°C° 0 mm 1 mps 601 mmHg 95%
    03:00 +7°C° 0 mm 1 mps 602 mmHg 95%
    04:00 +7°C° 0 mm 1 mps 602 mmHg 95%
    05:00 +8°C° 0.1 mm 1 mps 602 mmHg 93%
    06:00 +9°C° 0.1 mm 1 mps 603 mmHg 91%
    07:00 +9°C° 0.1 mm 1 mps 603 mmHg 90%
    08:00 +10°C° 0.1 mm 1 mps 604 mmHg 84%
    09:00 +10°C° 0.1 mm 2 mps 604 mmHg 79%
    10:00 +12°C° 0.1 mm 2 mps 605 mmHg 74%
    11:00 +13°C° 0.2 mm 2 mps 605 mmHg 70%
    12:00 +14°C° 0.2 mm 2 mps 606 mmHg 66%
    13:00 +15°C° 0.2 mm 2 mps 606 mmHg 61%
    14:00 +14°C° 0.3 mm 2 mps 606 mmHg 64%
    15:00 +13°C° 0.3 mm 3 mps 606 mmHg 66%
    16:00 +12°C° 0.3 mm 3 mps 606 mmHg 68%
    17:00 +12°C° 0.2 mm 2 mps 605 mmHg 75%
    18:00 +9°C° 0.2 mm 2 mps 604 mmHg 82%
    19:00 +8°C° 0.2 mm 1 mps 604 mmHg 89%
    20:00 +8°C° 0 mm 1 mps 604 mmHg 91%
    21:00 +7°C° 0 mm 1 mps 604 mmHg 92%
    22:00 +6°C° 0 mm 1 mps 604 mmHg 94%
    23:00 +6°C° 0 mm 1 mps 604 mmHg 94%

    Day after tomorrow, 16 August, Thursday

    Time Temperature Precipitation Wind Pressure Humidity
    00:00 +6°C° 0 mm 1 mps 604 mmHg 95%
    01:00 +6°C° 0 mm 1 mps 604 mmHg 95%
    02:00 +6°C° 0 mm 1 mps 603 mmHg 95%
    03:00 +5°C° 0 mm 1 mps 603 mmHg 96%
    04:00 +5°C° 0 mm 1 mps 603 mmHg 96%
    05:00 +6°C° 0 mm 1 mps 604 mmHg 93%
    06:00 +7°C° 0 mm 1 mps 604 mmHg 90%
    07:00 +9°C° 0 mm 1 mps 605 mmHg 87%
    08:00 +10°C° 0 mm 1 mps 606 mmHg 79%
    09:00 +12°C° 0 mm 2 mps 606 mmHg 72%
    10:00 +13°C° 0 mm 2 mps 607 mmHg 64%
    11:00 +14°C° 0 mm 2 mps 607 mmHg 61%
    12:00 +15°C° 0 mm 2 mps 607 mmHg 58%
    13:00 +15°C° 0 mm 2 mps 607 mmHg 55%
    14:00 +15°C° 0.1 mm 2 mps 607 mmHg 57%
    15:00 +15°C° 0.1 mm 2 mps 607 mmHg 59%
    16:00 +15°C° 0.1 mm 2 mps 606 mmHg 61%
    17:00 +13°C° 0.1 mm 2 mps 606 mmHg 70%
    18:00 +11°C° 0.1 mm 1 mps 605 mmHg 79%
    19:00 +9°C° 0.1 mm 1 mps 604 mmHg 88%
    20:00 +8°C° 0 mm 1 mps 604 mmHg 90%
    21:00 +8°C° 0 mm 1 mps 604 mmHg 91%
    22:00 +7°C° 0 mm 1 mps 603 mmHg 93%
    23:00 +7°C° 0 mm 1 mps 603 mmHg 94%

    17 August, Friday

    Time Temperature Precipitation Wind Pressure Humidity
    00:00 +6°C° 0 mm 1 mps 603 mmHg 94%
    01:00 +6°C° 0 mm 1 mps 603 mmHg 94%
    02:00 +6°C° 0 mm 1 mps 603 mmHg 94%
    03:00 +6°C° 0 mm 1 mps 602 mmHg 94%
    04:00 +5°C° 0 mm 1 mps 602 mmHg 93%
    05:00 +7°C° 0 mm 1 mps 603 mmHg 89%
    06:00 +9°C° 0 mm 1 mps 604 mmHg 84%
    07:00 +10°C° 0 mm 1 mps 605 mmHg 80%
    08:00 +12°C° 0 mm 1 mps 605 mmHg 71%
    09:00 +14°C° 0 mm 1 mps 606 mmHg 63%
    10:00 +16°C° 0 mm 1 mps 607 mmHg 54%
    11:00 +18°C° 0 mm 1 mps 607 mmHg 52%
    12:00 +18°C° 0 mm 1 mps 607 mmHg 50%
    13:00 +19°C° 0 mm 1 mps 607 mmHg 48%
    14:00 +18°C° 0.1 mm 1 mps 607 mmHg 52%
    15:00 +18°C° 0.1 mm 1 mps 606 mmHg 56%
    16:00 +16°C° 0.1 mm 1 mps 606 mmHg 59%
    17:00 +14°C° 0.1 mm 1 mps 605 mmHg 68%
    18:00 +12°C° 0.1 mm 1 mps 604 mmHg 77%
    19:00 +10°C° 0.1 mm 1 mps 604 mmHg 86%
    20:00 +9°C° 0 mm 1 mps 604 mmHg 87%
    21:00 +9°C° 0 mm 1 mps 604 mmHg 89%
    22:00 +8°C° 0 mm 1 mps 603 mmHg 91%
    23:00 +8°C° 0 mm 1 mps 603 mmHg 91%

    18 August, Saturday

    Time Temperature Precipitation Wind Pressure Humidity
    00:00 +8°C° 0 mm 1 mps 603 mmHg 91%
    01:00 +7°C° 0 mm 1 mps 603 mmHg 91%
    02:00 +7°C° 0 mm 1 mps 603 mmHg 91%
    03:00 +7°C° 0 mm 1 mps 603 mmHg 91%
    04:00 +7°C° 0 mm 1 mps 603 mmHg 91%
    05:00 +8°C° 0 mm 1 mps 604 mmHg 87%
    06:00 +10°C° 0 mm 1 mps 605 mmHg 83%
    07:00 +10°C° 0 mm 0 mps 606 mmHg 79%
    08:00 +13°C° 0 mm 1 mps 607 mmHg 69%
    09:00 +15°C° 0 mm 1 mps 608 mmHg 60%
    10:00 +16°C° 0 mm 2 mps 609 mmHg 51%
    11:00 +17°C° 0 mm 2 mps 609 mmHg 49%
    12:00 +17°C° 0 mm 2 mps 609 mmHg 47%
    13:00 +18°C° 0 mm 2 mps 609 mmHg 46%
    14:00 +17°C° 0 mm 2 mps 608 mmHg 48%
    15:00 +17°C° 0 mm 2 mps 608 mmHg 51%
    16:00 +17°C° 0 mm 2 mps 608 mmHg 54%
    17:00 +15°C° 0 mm 2 mps 607 mmHg 63%
    18:00 +13°C° 0 mm 1 mps 607 mmHg 71%
    19:00 +11°C° 0 mm 1 mps 606 mmHg 79%
    20:00 +10°C° 0 mm 1 mps 606 mmHg 82%
    21:00 +9°C° 0 mm 1 mps 606 mmHg 84%
    22:00 +9°C° 0 mm 1 mps 606 mmHg 86%
    23:00 +8°C° 0 mm 1 mps 606 mmHg 87%

    19 August, Sunday

    Time Temperature Precipitation Wind Pressure Humidity
    00:00 +8°C° 0 mm 1 mps 605 mmHg 88%
    01:00 +8°C° 0 mm 1 mps 605 mmHg 89%
    02:00 +7°C° 0 mm 1 mps 605 mmHg 89%
    03:00 +7°C° 0 mm 1 mps 605 mmHg 90%
    04:00 +7°C° 0 mm 1 mps 605 mmHg 90%
    05:00 +8°C° 0 mm 1 mps 606 mmHg 86%
    06:00 +10°C° 0 mm 1 mps 607 mmHg 82%
    07:00 +11°C° 0 mm 1 mps 608 mmHg 78%
    08:00 +12°C° 0 mm 2 mps 608 mmHg 73%
    09:00 +14°C° 0 mm 2 mps 609 mmHg 67%
    10:00 +15°C° 0 mm 2 mps 609 mmHg 62%
    11:00 +15°C° 0.3 mm 2 mps 609 mmHg 62%
    12:00 +16°C° 0.3 mm 2 mps 609 mmHg 61%
    13:00 +16°C° 0.3 mm 2 mps 609 mmHg 60%
    14:00 +16°C° 0.5 mm 2 mps 609 mmHg 61%
    15:00 +15°C° 0.5 mm 2 mps 609 mmHg 61%
    16:00 +15°C° 0.5 mm 2 mps 609 mmHg 61%
    17:00 +13°C° 0.1 mm 2 mps 608 mmHg 66%
    18:00 +10°C° 0.1 mm 2 mps 607 mmHg 71%
    19:00 +9°C° 0.1 mm 1 mps 606 mmHg 75%
    20:00 +8°C° 0 mm 1 mps 606 mmHg 75%
    21:00 +7°C° 0 mm 1 mps 606 mmHg 74%
    22:00 +6°C° 0 mm 1 mps 606 mmHg 73%
    23:00 +6°C° 0 mm 1 mps 605 mmHg 73%
    Show more